Weather observations for the past three days for
VIGIE/ST LUCIA
Imperial (Metric)
Date Time (ast) Wind (mph) Vis. (mi.) Weather Sky Cond. Temperature (ºF) Relative Humidity Wind Chill (°F) Heat Index (°F) Pressure Precipitation (in)
Air Dwpt 6 hour altimeter (in) sea level (mb) 1 hr 3 hr 6 hr
Max. Min.
02 19:00 E 8 0.00 A Few Clouds FEW024 82.4 73.4 74% 88 0 0.0
02 18:00 E 10 0.00 A Few Clouds FEW024 84.2 73.4 70% 91 0 0.0
02 17:00 E 9 0.00 Partly Cloudy SCT026 86 73.4 66% 93 0 0.0
02 16:00 E 9 0.00 A Few Clouds FEW026 87.8 75.2 66% 98 0 0.0
02 15:00 E 8 0.00 A Few Clouds FEW026 89.6 71.6 55% 96 0 0.0
02 14:00 NE 7 0.00 A Few Clouds FEW026 89.6 71.6 55% 96 0 0.0
02 13:00 E 10 0.00 A Few Clouds FEW025 89.6 71.6 55% 96 0 0.0
02 12:00 E 9 0.00 Partly Cloudy SCT025 89.6 73.4 59% 98 0 0.0
02 11:00 E 9 0.00 Partly Cloudy SCT025 87.8 75.2 66% 98 0 0.0
02 10:00 E 8 0.00 A Few Clouds FEW025 87.8 73.4 62% 96 0 0.0
02 09:00 E 10 0.00 A Few Clouds FEW022 86 75.2 70% 95 0 0.0
02 08:00 E 10 0.00 A Few Clouds FEW022 86 75.2 70% 95 0 0.0
01 20:00 E 7 0.00 A Few Clouds FEW023 82.4 75.2 79% 89 0 0.0
01 19:00 E 7 0.00 A Few Clouds FEW023 82.4 75.2 79% 89 0 0.0
01 18:00 E 8 0.00 A Few Clouds FEW023 84.2 75.2 74% 92 0 0.0
01 17:00 E 10 0.00 A Few Clouds FEW024 86 75.2 70% 95 0 0.0
01 16:00 E 9 0.00 Partly Cloudy SCT023 87.8 75.2 66% 98 0 0.0
01 15:00 E 12 0.00 Partly Cloudy SCT023 86 75.2 70% 95 0 0.0
01 14:00 E 9 0.00 Mostly Cloudy BKN023 87.8 77 70% 100 0 0.0
01 12:00 E 14 0.00 Partly Cloudy SCT022 87.8 77 70% 100 0 0.0
01 11:00 E 10 0.00 Partly Cloudy SCT022 86 77 75% 97 0 0.0
01 10:00 E 9 0.00 Partly Cloudy SCT022 87.8 75.2 66% 98 0 0.0
01 09:00 E 8 0.00 Partly Cloudy SCT026 86 75.2 70% 95 0 0.0
31 20:00 E 6 0.00 A Few Clouds FEW024 82.4 77 84% 91 0 0.0
31 18:00 E 8 0.00 Partly Cloudy SCT026 84.2 77 79% 94 0 0.0
31 16:00 E 9 0.00 Partly Cloudy SCT026 86 77 75% 97 0 0.0
31 15:00 E 13 0.00 Partly Cloudy SCT026 87.8 77 70% 100 0 0.0
31 12:00 E 15 0.00 Partly Cloudy SCT026 87.8 77 70% 100 0 0.0
31 11:00 E 15 0.00 Partly Cloudy SCT026 87.8 77 70% 100 0 0.0
31 10:00 E 13 G 24 0.00 Partly Cloudy SCT025 86 77 75% 97 0 0.0
31 09:00 E 13 G 24 0.00 Partly Cloudy SCT025 86 77 75% 97 0 0.0
31 08:00 E 9 0.00 Partly Cloudy SCT024 84.2 77 79% 94 0 0.0
Date Time (ast) Wind (mph) Vis. (mi.) Weather Sky Cond. Air Dwpt Max. Min. Relative Humidity Wind Chill (°F) Heat Index (°F) altimeter (in) sea level (mb) 1 hr 3 hr 6 hr
6 hour
Temperature (ºF) Pressure Precipitation (in)